IOR-W (EGNOS/PRN 126)

Last updated on Jan. 25, 2020, 4:44 a.m. UTC

1 28899U 05044A   20024.77927944  .00000002  00000-0  00000+0 0  9997
2 28899   2.9639  28.7690 0002511 283.4591 155.7382  1.00272626 52082
UTC
Height (km)
Latitude
Longitude
Inclination
Orbital Period
UTC large
Height (km)
Speed (km/s)
/
Latitude / Longitude
Inclination (degrees)
Orbital Period (minutes)
Azimuth
Elevation
Range (km)
Doppler Factor
iOS Compass Heading
iOS Angle

Next 30 passes for location: Hong Kong

Rise time Rise Azimuth (degrees) Set time Set Azimuth (degrees) Duration Max altitude (degrees)

No matching passes for this satellites